Wind_Speed
66 65 65 64 63 62 60 60 60 60 61 62 63 63 62 62 61 60 58 57 56 55 54 53 53 51 50 49 49 48 47 45 44 43 43 43 44 44 46 46 47 47
70 69 68 67 66 65 64 64 63 63 64 64 65 65 64 64 63 63 62 61 60 58 56 56 55 54 53 52 52 51 50 49 48 47 46 45 45 45 46 47 48 49
74 73 72 70 69 69 68 68 67 67 67 67 68 68 67 66 65 65 65 64 64 62 61 60 59 58 57 56 56 55 54 53 52 50 49 48 47 47 47 49 50 51
77 76 75 74 73 72 72 72 71 71 70 70 70 69 69 68 67 67 67 66 66 66 65 64 63 62 62 62 62 61 60 59 58 56 54 52 50 49 49 50 51 51
79 79 78 77 77 77 76 75 74 74 74 73 72 71 71 70 70 70 70 69 69 69 69 68 67 66 66 67 67 67 66 65 63 61 58 56 53 51 50 50 51 52
80 80 81 81 81 81 80 80 79 78 78 77 76 76 75 75 74 74 74 74 74 74 73 73 72 70 70 71 71 71 70 69 66 63 60 57 55 53 51 51 51 51
84 83 82 82 83 84 85 85 84 84 83 82 82 81 81 81 80 79 79 78 78 78 77 77 76 75 75 75 76 75 74 72 69 65 61 59 57 55 53 52 52 52
87 87 86 86 85 86 88 88 89 89 88 87 86 85 85 85 85 85 83 82 81 81 80 80 80 80 80 79 79 78 77 74 71 67 64 62 60 58 56 56 55 54
81 82 83 86 88 88 89 90 91 91 90 90 90 89 89 88 88 88 87 86 85 84 83 82 82 82 81 81 80 79 78 76 73 70 67 65 62 60 59 59 58 58
78 76 71 72 80 84 86 88 89 89 89 89 90 90 89 89 89 88 88 87 87 86 85 83 82 82 81 80 79 78 77 76 75 72 69 68 66 63 62 61 62 62
70 72 66 63 67 72 77 81 83 86 88 88 88 89 88 88 88 87 87 87 86 86 85 84 83 82 81 80 79 78 78 77 76 74 72 71 69 67 65 64 65 66
54 63 68 67 65 64 66 70 76 81 85 86 87 88 88 87 87 86 86 86 86 85 85 84 83 82 82 81 80 79 79 78 78 77 75 74 72 70 68 67 67 67
49 56 65 68 65 62 61 64 70 75 77 80 82 84 85 85 85 85 84 84 84 83 82 82 82 81 81 80 79 79 79 78 78 78 77 76 75 74 72 70 68 68
51 55 61 64 64 62 61 62 66 69 70 71 72 74 76 78 79 80 80 80 80 79 79 79 79 79 79 79 78 78 78 78 77 77 77 76 75 74 73 71 70 70
52 55 60 63 65 64 61 62 65 66 66 66 66 66 67 69 71 73 75 75 76 76 77 77 77 77 77 77 76 76 77 77 76 76 76 75 74 73 72 71 70 70
55 57 60 64 65 66 66 67 66 64 63 63 62 61 60 60 61 64 67 70 72 73 73 73 74 73 73 73 74 73 74 75 75 75 75 74 72 71 70 69 69 69
56 57 60 63 65 67 69 70 67 63 61 60 60 60 59 57 57 58 60 62 65 67 68 69 69 69 69 70 70 70 71 72 72 73 72 72 71 70 70 69 68 67
57 58 60 63 65 67 69 69 67 66 65 64 64 64 63 61 60 59 59 59 60 63 65 66 67 67 67 68 68 69 70 71 72 72 72 71 71 70 69 69 68 66
58 59 61 64 66 68 70 70 69 69 69 68 68 68 67 66 64 63 63 61 60 60 61 63 64 65 66 66 68 69 70 72 73 73 72 71 70 70 69 68 68 66
58 61 63 65 67 69 70 71 71 71 70 70 70 69 68 68 68 67 65 63 61 59 59 59 61 62 63 64 66 69 70 72 73 73 73 73 71 71 70 70 69 68
53 59 63 66 68 70 71 72 73 72 72 71 70 70 71 71 72 69 66 63 61 59 57 57 57 57 59 60 63 66 69 71 72 74 75 75 74 73 72 72 71 70
39 48 54 59 64 68 70 72 73 73 73 72 72 71 69 67 65 62 58 56 54 53 52 52 52 53 53 55 58 61 63 65 68 70 73 75 75 74 73 72 72 71
29 33 39 44 49 53 57 61 63 66 67 67 65 62 58 55 53 51 50 49 49 49 49 50 52 52 52 54 56 58 59 60 61 63 66 68 70 70 70 70 70 70
27 29 31 33 36 39 42 45 49 52 52 51 50 49 48 48 48 48 48 49 49 50 50 51 53 54 54 55 56 57 57 57 57 57 59 61 63 64 65 66 68 69
28 28 29 30 31 32 34 36 38 40 39 39 40 41 42 43 44 45 46 47 48 48 48 49 50 51 52 53 55 56 56 56 56 56 57 58 60 61 62 63 65 66
28 28 28 28 28 28 30 32 34 34 34 35 36 37 39 40 41 42 43 44 44 45 45 45 46 47 47 48 50 52 53 54 55 56 57 58 60 61 61 62 63 65
Wind_Direction
247 247 248 248 248 247 246 245 245 246 247 247 248 247 247 248 249 251 252 254 255 258 259 261 262 264 265 267 268 270 272 273 275 275 275 274 273 270 267 265 264 264
248 248 248 248 248 248 248 247 247 247 247 248 249 249 249 249 249 251 252 253 254 256 258 260 262 264 265 267 269 270 272 273 275 276 276 275 274 271 267 265 264 263
250 250 250 249 249 248 247 247 248 247 247 248 249 249 250 250 250 250 251 253 254 255 256 258 261 263 265 267 268 270 271 273 274 275 276 276 275 273 271 268 266 265
252 252 251 251 250 249 248 247 247 247 248 248 248 249 249 250 250 250 251 252 253 255 256 257 259 262 265 267 269 270 271 272 273 274 275 275 275 274 271 269 267 266
252 252 252 252 252 252 251 250 249 248 248 248 248 249 249 250 250 251 251 252 253 255 256 257 259 261 264 266 268 270 271 271 272 272 273 273 273 272 269 267 266 266
252 252 253 253 253 253 253 253 252 251 250 249 249 250 251 252 252 252 253 254 254 255 256 257 259 260 262 265 267 269 270 270 270 270 270 269 269 268 266 265 265 265
250 251 252 253 253 253 253 253 253 253 252 251 251 252 253 253 254 254 255 255 255 256 256 257 258 260 261 263 265 267 268 268 268 267 267 267 266 266 265 264 263 263
250 251 251 252 251 251 251 252 252 253 253 253 253 253 253 254 254 255 256 256 256 256 256 256 257 258 259 260 262 263 264 265 265 265 265 264 264 265 265 263 262 261
249 249 250 251 250 250 250 250 251 252 252 253 253 253 253 253 254 254 255 255 256 256 256 256 257 257 258 258 259 260 261 262 262 263 263 263 263 263 263 262 261 260
248 246 247 250 251 250 250 250 250 251 251 251 251 251 252 252 252 253 253 254 255 256 257 257 257 258 258 258 259 259 259 260 260 261 261 261 261 261 260 261 261 260
251 247 243 245 248 248 250 250 250 251 251 251 251 251 251 251 251 252 252 253 254 255 256 256 257 257 258 258 258 258 258 258 259 259 259 259 259 259 258 258 259 260
250 247 241 240 243 244 247 249 249 250 250 250 251 252 252 252 253 253 253 253 253 254 255 256 257 257 257 257 257 257 257 257 257 257 257 256 257 257 256 256 257 258
243 241 239 240 242 243 245 247 248 248 250 251 252 252 253 253 254 255 255 255 255 255 256 256 257 257 258 258 258 257 257 257 256 255 255 254 254 254 254 254 255 255
239 235 235 239 242 243 245 248 249 249 249 250 251 252 253 254 254 255 255 255 256 256 256 256 256 257 257 257 257 257 256 256 255 254 254 253 252 252 252 252 252 252
239 235 234 238 241 242 243 246 249 251 251 251 252 253 254 254 254 254 254 254 255 255 255 255 255 255 255 255 255 255 255 255 254 254 254 253 253 252 251 250 250 249
240 237 235 237 241 243 243 245 249 252 254 255 256 258 258 258 256 255 254 253 253 253 253 253 253 253 253 254 254 254 254 253 253 253 254 254 253 253 252 250 248 247
240 240 237 237 241 244 246 248 251 252 255 257 260 262 263 263 263 262 259 257 255 253 252 251 251 251 252 252 253 253 253 253 252 253 253 253 254 253 253 251 249 247
237 240 238 238 240 243 245 248 251 253 255 257 260 262 264 266 267 267 266 263 259 256 254 253 252 252 252 252 253 253 253 253 252 252 253 253 253 253 253 251 250 248
236 237 237 238 240 242 244 246 250 253 256 258 260 262 265 267 268 268 267 265 262 259 257 256 255 254 254 254 253 253 253 252 252 252 252 252 251 251 252 251 250 248
239 238 238 240 241 243 245 248 251 254 256 259 261 263 266 268 269 268 266 264 262 259 258 256 254 254 254 253 253 252 252 251 251 251 251 251 250 250 250 250 250 249
244 242 242 243 245 246 248 250 253 255 257 259 262 264 266 268 268 267 265 262 260 259 257 255 253 252 252 252 251 250 250 249 249 249 249 249 249 249 249 248 248 248
246 245 245 246 248 248 250 252 254 256 258 260 263 264 265 265 263 262 261 259 258 257 256 255 255 254 252 251 250 249 249 248 248 247 247 247 248 248 248 247 247 246
254 250 248 248 249 250 252 253 255 256 258 259 261 261 261 260 260 259 259 258 257 256 255 255 254 253 252 250 249 249 248 248 247 246 245 245 245 245 245 244 244 243
262 259 256 254 254 254 254 254 254 255 256 257 257 257 257 257 258 258 257 257 256 255 254 253 252 251 249 248 248 247 247 247 247 246 246 245 244 243 242 242 241 241
263 262 260 259 258 258 257 256 256 256 257 257 257 257 258 258 258 258 258 257 257 255 254 253 252 251 249 247 247 247 246 246 246 246 246 246 245 245 244 242 242 241
269 268 266 264 262 262 260 260 260 260 260 261 261 261 261 261 261 261 261 261 261 260 259 258 257 256 255 253 252 252 250 249 249 248 248 248 247 246 246 244 243 242
Height
10669 10670 10672 10675 10677 10680 10682 10684 10686 10688 10690 10691 10693 10695 10697 10699 10700 10701 10702 10703 10704 10706 10708 10710 10712 10714 10716 10717 10716 10716 10718 10721 10722 10723 10724 10724 10725 10726 10727 10728 10729 10730
10661 10663 10665 10668 10670 10673 10675 10676 10678 10680 10682 10684 10685 10688 10690 10692 10693 10694 10695 10696 10697 10699 10701 10703 10705 10707 10709 10710 10710 10711 10713 10715 10716 10718 10719 10719 10720 10721 10722 10723 10723 10724
10653 10655 10658 10661 10663 10665 10667 10668 10669 10671 10673 10675 10677 10679 10682 10684 10686 10687 10688 10689 10690 10691 10694 10695 10698 10700 10702 10703 10704 10706 10707 10709 10711 10713 10714 10714 10715 10715 10716 10718 10718 10718
10644 10647 10650 10652 10654 10656 10658 10659 10661 10663 10665 10667 10669 10671 10674 10676 10678 10680 10681 10682 10683 10684 10686 10688 10691 10693 10696 10697 10698 10699 10701 10703 10705 10707 10709 10708 10709 10710 10711 10712 10712 10713
10635 10638 10641 10643 10645 10647 10649 10651 10653 10655 10656 10658 10661 10663 10666 10668 10670 10672 10673 10675 10676 10677 10679 10681 10684 10687 10689 10690 10691 10692 10694 10696 10698 10701 10702 10702 10703 10704 10705 10706 10706 10707
10628 10630 10632 10633 10636 10637 10639 10640 10642 10645 10647 10649 10652 10655 10657 10659 10661 10663 10665 10667 10669 10670 10672 10674 10676 10680 10682 10683 10683 10684 10686 10688 10691 10694 10695 10695 10696 10697 10698 10700 10701 10701
10620 10622 10623 10624 10626 10627 10628 10629 10631 10633 10636 10639 10642 10645 10648 10649 10651 10654 10656 10658 10660 10662 10664 10666 10668 10671 10674 10676 10676 10677 10678 10680 10683 10686 10687 10687 10688 10689 10691 10693 10694 10695
10611 10613 10614 10614 10615 10615 10615 10617 10618 10621 10625 10628 10631 10634 10636 10638 10640 10642 10645 10647 10650 10652 10655 10658 10660 10662 10665 10668 10669 10670 10671 10672 10674 10677 10679 10679 10680 10683 10685 10686 10687 10688
10598 10599 10600 10600 10601 10602 10603 10604 10606 10609 10612 10615 10617 10620 10623 10625 10628 10630 10633 10636 10639 10642 10645 10648 10650 10652 10655 10658 10660 10662 10664 10664 10666 10668 10670 10671 10673 10676 10677 10678 10679 10679
10582 10584 10586 10586 10586 10588 10590 10592 10594 10597 10598 10600 10602 10605 10609 10612 10616 10619 10622 10625 10628 10631 10634 10637 10640 10643 10645 10648 10651 10653 10655 10656 10658 10660 10661 10661 10664 10667 10668 10669 10669 10670
10572 10575 10575 10572 10571 10573 10575 10578 10582 10583 10584 10586 10589 10591 10595 10599 10603 10607 10611 10614 10617 10620 10623 10626 10629 10632 10635 10638 10640 10642 10645 10646 10648 10650 10652 10653 10654 10657 10659 10660 10659 10660
10563 10565 10563 10558 10558 10562 10565 10568 10569 10570 10571 10575 10578 10580 10583 10587 10591 10595 10598 10602 10605 10609 10612 10615 10618 10621 10624 10627 10630 10632 10634 10636 10637 10640 10642 10643 10644 10646 10648 10649 10650 10651
10555 10555 10554 10552 10553 10557 10558 10558 10558 10559 10562 10566 10568 10571 10573 10576 10579 10583 10586 10590 10594 10597 10601 10604 10606 10609 10612 10615 10618 10620 10622 10624 10625 10627 10629 10632 10634 10636 10637 10639 10640 10641
10547 10549 10549 10549 10549 10550 10550 10549 10549 10552 10555 10557 10560 10562 10564 10567 10570 10572 10575 10578 10582 10585 10588 10591 10594 10597 10600 10602 10605 10607 10609 10610 10612 10613 10616 10618 10621 10624 10627 10629 10630 10632
10540 10542 10543 10543 10542 10543 10543 10542 10542 10545 10547 10550 10552 10555 10557 10559 10561 10563 10565 10568 10570 10573 10576 10579 10582 10585 10587 10589 10592 10594 10595 10596 10598 10599 10602 10605 10608 10612 10615 10618 10620 10622
10534 10535 10536 10537 10536 10537 10537 10535 10536 10539 10540 10542 10545 10547 10549 10551 10552 10554 10556 10558 10560 10562 10565 10567 10569 10572 10575 10577 10579 10581 10583 10584 10585 10587 10590 10593 10596 10599 10603 10606 10609 10612
10527 10528 10530 10531 10532 10531 10531 10530 10532 10533 10534 10536 10537 10538 10540 10542 10543 10545 10547 10549 10551 10552 10554 10556 10558 10561 10564 10566 10568 10570 10571 10573 10574 10576 10579 10582 10585 10588 10591 10594 10598 10602
10520 10521 10523 10525 10526 10525 10525 10525 10526 10527 10527 10529 10530 10531 10533 10534 10535 10537 10538 10540 10541 10543 10544 10546 10548 10551 10554 10556 10558 10559 10560 10561 10563 10565 10568 10571 10574 10577 10579 10583 10587 10590
10514 10515 10516 10517 10518 10518 10518 10519 10519 10519 10520 10521 10523 10524 10525 10526 10527 10528 10528 10529 10531 10532 10534 10536 10538 10541 10543 10546 10547 10548 10549 10550 10551 10553 10556 10559 10562 10565 10568 10571 10574 10578
10509 10509 10509 10510 10510 10511 10512 10512 10512 10512 10513 10514 10516 10517 10518 10518 10518 10518 10519 10519 10520 10522 10524 10525 10527 10530 10532 10535 10536 10536 10537 10538 10539 10541 10544 10547 10550 10553 10556 10559 10562 10565
10503 10503 10503 10503 10504 10505 10505 10505 10505 10505 10506 10508 10509 10510 10511 10510 10509 10509 10509 10509 10510 10511 10513 10515 10516 10519 10522 10523 10524 10524 10524 10525 10527 10530 10532 10534 10538 10541 10544 10547 10550 10552
10496 10496 10496 10497 10497 10498 10498 10498 10498 10499 10500 10501 10502 10503 10502 10501 10500 10500 10500 10500 10500 10502 10504 10505 10506 10509 10511 10512 10512 10513 10513 10514 10516 10518 10520 10522 10525 10528 10532 10535 10537 10540
10490 10490 10490 10490 10490 10490 10491 10492 10492 10492 10493 10494 10495 10494 10494 10492 10492 10491 10491 10491 10492 10493 10495 10496 10497 10499 10501 10502 10502 10502 10503 10504 10506 10507 10508 10510 10513 10516 10520 10522 10525 10527
10484 10484 10484 10484 10485 10485 10485 10486 10486 10485 10486 10487 10487 10486 10485 10484 10484 10483 10483 10483 10484 10485 10487 10488 10488 10490 10492 10492 10492 10493 10494 10495 10496 10497 10498 10500 10502 10504 10507 10510 10512 10515
10480 10480 10480 10480 10480 10480 10480 10480 10479 10479 10479 10479 10479 10478 10477 10476 10476 10475 10475 10476 10476 10477 10479 10479 10479 10480 10482 10483 10482 10483 10484 10485 10486 10487 10488 10489 10491 10493 10496 10498 10501 10503
10476 10476 10475 10475 10475 10475 10474 10473 10472 10472 10472 10472 10471 10471 10470 10469 10468 10468 10468 10468 10468 10469 10470 10470 10471 10471 10472 10473 10473 10473 10474 10476 10477 10478 10478 10479 10481 10483 10485 10488 10490 10492